Location: ???? ????
(31.2831°N, 45.5190°E)
Time: 04:56:45
(UTC+00:00)

Yuri Rocket - Pass Details

Date: 24 February 2021
Orbit: 568 x 1914 km, 28.2° (Epoch: 14 April)

Event Time Altitude Azimuth Distance (km) Brightness Sun altitude
Rises 15:40:54 0° 266° (W) 4,532 9.8 -11.1°
Reaches altitude 10° 15:44:23 10° 264° (W) 3,336 8.3 -11.8°
Maximum altitude 15:52:26 69° 183° (S) 1,071 4.2 -13.6°
Enters shadow 15:56:40 20° 104° (ESE) 1,896 4.9 -14.5°
